EJA809 KPIE-KORL

Flight info

Callsign EJA809
Flight time 0h 24m
Altitude 17000
Route ENDED2 LACEN RDSOX ESRAQ
Aircraft C700/M-SBDGHM1RWXY/LB2

Departure

Time 2026-05-05 00:46
Airport St. Petersburg Clearwater International Airport (KPIE)

Arrival

Time 2026-05-05 01:11
Airport Orlando Executive Airport (KORL)
Time Latitude Longitude Altitude Speed Heading
2026-05-05 00:21 27.90195 -82.68914 14 ft 0 kts 260°
2026-05-05 00:44 27.90187 -82.68919 14 ft 3 kts 199°
2026-05-05 00:44 27.90179 -82.68907 14 ft 2 kts 91°
2026-05-05 00:44 27.90181 -82.68886 14 ft 6 kts 90°
2026-05-05 00:44 27.90119 -82.68864 13 ft 16 kts 184°
2026-05-05 00:45 27.89969 -82.68869 10 ft 25 kts 179°
2026-05-05 00:45 27.89783 -82.68843 11 ft 28 kts 172°
2026-05-05 00:45 27.89691 -82.68797 11 ft 15 kts 114°
2026-05-05 00:45 27.89699 -82.68661 9 ft 20 kts 75°
2026-05-05 00:46 27.89784 -82.68632 8 ft 17 kts 352°
2026-05-05 00:46 27.90215 -82.68703 15 ft 111 kts 352°
2026-05-05 00:46 27.91212 -82.68871 234 ft 159 kts 351°
2026-05-05 00:46 27.92341 -82.69021 671 ft 169 kts 354°
2026-05-05 00:47 27.93558 -82.69143 1013 ft 179 kts 355°
2026-05-05 00:47 27.94808 -82.69322 1534 ft 184 kts 355°
2026-05-05 00:47 27.96170 -82.69551 1610 ft 213 kts 354°
2026-05-05 00:47 27.97725 -82.69805 1634 ft 231 kts 354°
2026-05-05 00:48 27.99280 -82.70056 1624 ft 222 kts 354°
2026-05-05 00:48 28.00811 -82.70310 1682 ft 227 kts 354°
2026-05-05 00:48 28.02399 -82.70367 3007 ft 233 kts 17°
2026-05-05 00:48 28.03701 -82.69297 4533 ft 241 kts 59°
2026-05-05 00:49 28.04085 -82.67453 6177 ft 249 kts 97°
2026-05-05 00:49 28.03627 -82.65536 7840 ft 256 kts 111°
2026-05-05 00:49 28.03080 -82.63505 8935 ft 288 kts 106°
2026-05-05 00:49 28.02766 -82.61271 9000 ft 284 kts 95°
2026-05-05 00:50 28.02715 -82.59092 9007 ft 277 kts 91°
2026-05-05 00:50 28.02703 -82.56922 9011 ft 276 kts 92°
2026-05-05 00:50 28.02586 -82.54742 9010 ft 278 kts 96°
2026-05-05 00:50 28.02375 -82.52557 8971 ft 280 kts 98°
2026-05-05 00:51 28.02175 -82.50374 8964 ft 277 kts 96°
2026-05-05 00:51 28.02035 -82.48200 8964 ft 277 kts 95°
2026-05-05 00:51 28.01918 -82.46019 8966 ft 278 kts 95°
2026-05-05 00:51 28.01776 -82.43835 8981 ft 278 kts 96°
2026-05-05 00:52 28.01607 -82.41649 8986 ft 279 kts 96°
2026-05-05 00:52 28.01438 -82.39455 8978 ft 280 kts 96°
2026-05-05 00:52 28.01287 -82.37255 8985 ft 280 kts 95°
2026-05-05 00:52 28.01145 -82.35061 8982 ft 279 kts 95°
2026-05-05 00:53 28.00995 -82.32874 8976 ft 279 kts 96°
2026-05-05 00:53 28.00834 -82.30711 8982 ft 279 kts 96°
2026-05-05 00:53 28.00673 -82.28528 8983 ft 278 kts 96°
2026-05-05 00:53 28.00520 -82.26338 8981 ft 278 kts 95°
2026-05-05 00:54 28.00371 -82.24150 8998 ft 278 kts 95°
2026-05-05 00:54 28.00218 -82.21968 8997 ft 278 kts 96°
2026-05-05 00:54 28.00056 -82.19782 8995 ft 279 kts 96°
2026-05-05 00:54 27.99894 -82.17593 8999 ft 279 kts 96°
2026-05-05 00:55 27.99740 -82.15423 8997 ft 280 kts 95°
2026-05-05 00:55 27.99587 -82.13226 9000 ft 280 kts 96°
2026-05-05 00:55 27.99430 -82.11031 9000 ft 280 kts 96°
2026-05-05 00:55 27.99268 -82.08828 8988 ft 281 kts 96°
2026-05-05 00:56 27.99104 -82.06625 8990 ft 281 kts 96°
2026-05-05 00:56 27.98944 -82.04414 8990 ft 280 kts 96°
2026-05-05 00:56 27.99005 -82.02215 8982 ft 280 kts 79°
2026-05-05 00:56 27.99611 -82.00124 8976 ft 279 kts 65°
2026-05-05 00:57 28.00543 -81.98230 8981 ft 279 kts 58°
2026-05-05 00:57 28.01509 -81.96321 8981 ft 280 kts 61°
2026-05-05 00:57 28.02387 -81.94345 8982 ft 281 kts 63°
2026-05-05 00:57 28.03273 -81.92370 8981 ft 281 kts 62°
2026-05-05 00:58 28.04210 -81.90434 8982 ft 280 kts 60°
2026-05-05 00:58 28.05162 -81.88515 9000 ft 279 kts 60°
2026-05-05 00:58 28.06091 -81.86582 8998 ft 279 kts 61°
2026-05-05 00:58 28.06995 -81.84641 8999 ft 279 kts 62°
2026-05-05 00:59 28.07894 -81.82718 8775 ft 274 kts 61°
2026-05-05 00:59 28.08809 -81.80808 8264 ft 276 kts 61°
2026-05-05 00:59 28.09725 -81.78912 7858 ft 273 kts 61°
2026-05-05 00:59 28.10706 -81.77075 7431 ft 271 kts 49°
2026-05-05 01:00 28.12223 -81.75866 7007 ft 266 kts 18°
2026-05-05 01:00 28.14033 -81.75607 6602 ft 261 kts 356°
2026-05-05 01:00 28.15841 -81.75725 6179 ft 260 kts 353°
2026-05-05 01:00 28.17638 -81.75887 5776 ft 258 kts 353°
2026-05-05 01:01 28.19395 -81.76046 5386 ft 255 kts 353°
2026-05-05 01:01 28.21155 -81.76208 5050 ft 252 kts 353°
2026-05-05 01:01 28.22891 -81.76382 4682 ft 249 kts 354°
2026-05-05 01:01 28.24612 -81.76556 4261 ft 248 kts 360°
2026-05-05 01:02 28.26201 -81.75945 3834 ft 242 kts 41°
2026-05-05 01:02 28.27215 -81.74474 3515 ft 234 kts 59°
2026-05-05 01:02 28.28144 -81.72960 3164 ft 233 kts 52°
2026-05-05 01:02 28.29318 -81.71718 3008 ft 227 kts 41°
2026-05-05 01:03 28.30559 -81.70622 3011 ft 229 kts 42°
2026-05-05 01:03 28.31784 -81.69436 3016 ft 233 kts 45°
2026-05-05 01:03 28.32983 -81.68182 3020 ft 234 kts 46°
2026-05-05 01:03 28.34191 -81.66940 3022 ft 234 kts 44°
2026-05-05 01:04 28.35410 -81.65738 2952 ft 235 kts 44°
2026-05-05 01:04 28.37841 -81.63327 2711 ft 230 kts 45°
2026-05-05 01:04 28.39023 -81.62125 2585 ft 225 kts 45°
2026-05-05 01:05 28.40175 -81.60960 2465 ft 219 kts 45°
2026-05-05 01:05 28.41309 -81.59827 2331 ft 216 kts 44°
2026-05-05 01:05 28.42438 -81.58695 2206 ft 216 kts 44°
2026-05-05 01:05 28.43561 -81.57565 2075 ft 216 kts 45°
2026-05-05 01:06 28.44680 -81.56440 2023 ft 212 kts 45°
2026-05-05 01:06 28.45756 -81.55348 2011 ft 204 kts 46°
2026-05-05 01:06 28.46578 -81.54119 1994 ft 190 kts 66°
2026-05-05 01:06 28.47048 -81.52720 1978 ft 191 kts 75°
2026-05-05 01:07 28.47347 -81.51244 1975 ft 191 kts 76°
2026-05-05 01:07 28.48054 -81.49967 1985 ft 194 kts 53°
2026-05-05 01:07 28.48698 -81.48631 1984 ft 193 kts 71°
2026-05-05 01:07 28.49195 -81.47232 2004 ft 181 kts 68°
2026-05-05 01:08 28.49697 -81.46022 1997 ft 160 kts 68°
2026-05-05 01:08 28.50139 -81.44870 1998 ft 160 kts 70°
2026-05-05 01:08 28.50573 -81.43692 1955 ft 164 kts 69°
2026-05-05 01:08 28.51029 -81.42518 1753 ft 157 kts 69°
2026-05-05 01:09 28.51443 -81.41420 1540 ft 145 kts 70°
2026-05-05 01:09 28.51822 -81.40412 1361 ft 136 kts 69°
2026-05-05 01:09 28.52191 -81.39437 1191 ft 127 kts 69°
2026-05-05 01:09 28.52543 -81.38511 1021 ft 132 kts 69°
2026-05-05 01:10 28.52902 -81.37551 840 ft 133 kts 68°
2026-05-05 01:10 28.53276 -81.36596 660 ft 131 kts 69°
2026-05-05 01:10 28.53610 -81.35690 482 ft 120 kts 69°
2026-05-05 01:10 28.53938 -81.34830 324 ft 118 kts 67°
2026-05-05 01:11 28.54262 -81.33981 174 ft 115 kts 67°
2026-05-05 01:11 28.54548 -81.33220 114 ft 90 kts 66°
2026-05-05 01:11 28.54715 -81.32798 111 ft 21 kts 55°
2026-05-05 01:11 28.54805 -81.32744 111 ft 16 kts 33°
2026-05-05 01:12 28.54845 -81.32712 110 ft 0 kts 34°
2026-05-05 01:13 28.54867 -81.32712 110 ft 9 kts 343°
2026-05-05 01:13 28.54868 -81.32786 109 ft 13 kts 246°
2026-05-05 01:13 28.54827 -81.32896 112 ft 17 kts 247°
2026-05-05 01:13 28.54774 -81.33038 111 ft 22 kts 247°
2026-05-05 01:14 28.54739 -81.33128 110 ft 18 kts 247°
2026-05-05 01:14 28.54714 -81.33283 111 ft 23 kts 264°
2026-05-05 01:14 28.54700 -81.33457 110 ft 10 kts 264°
2026-05-05 01:14 28.54689 -81.33585 111 ft 15 kts 269°
2026-05-05 01:15 28.54741 -81.33677 111 ft 13 kts 324°
2026-05-05 01:15 28.54791 -81.33698 109 ft 9 kts 341°
2026-05-05 01:15 28.54807 -81.33729 111 ft 0 kts 275°